This demonstration page uses our WeatherBlox Daily Observations layout. Learn more.

Left ArrowRight Arrow

Hourly Observations for October 12, 2019

Temp ( °F °C ) Dew Point ( °F °C ) Humidity (%) Winds ( mph kmh ) Pressure ( in mb ) Visibility ( mi km ) Precip ( " mm )
12:53 am 00:53 Clear 61 16.1 57 13.9 87 87 Calm 30.04 1017 10 16 0.00 0.00
1:53 am 01:53 Clear 62 16.7 57 13.9 84 84 Calm 30.03 1017 10 16 0.00 0.00
2:53 am 02:53 Clear 61 16.1 57 13.9 87 87 Calm 30.02 1017 10 16 0.00 0.00
3:53 am 03:53 Clear 60 15.6 57 13.9 90 90 Calm 30.01 1016 10 16 0.00 0.00
4:53 am 04:53 Clear 61 16.1 57 13.9 87 87 Calm 30.00 1016 10 16 0.00 0.00
5:53 am 05:53 Clear 59 15 56 13.3 90 90 Calm 30.02 1017 10 16 0.00 0.00
6:53 am 06:53 Clear 60 15.6 55 12.8 84 84 Calm 30.03 1017 10 16 0.00 0.00
7:53 am 07:53 Mostly Sunny 57 13.9 55 12.8 93 93 W 3 6 30.04 1017 10 16 0.00 0.00
8:53 am 08:53 Sunny 62 16.7 57 13.9 84 84 Calm 30.04 1017 10 16 0.00 0.00
9:53 am 09:53 Partly Cloudy 69 20.6 57 13.9 66 66 S 3 6 30.05 1018 10 16 0.00 0.00
10:53 am 10:53 Sunny 73 22.8 59 15 62 62 WNW 6 9 30.05 1018 10 16 0.00 0.00
11:53 am 11:53 Mostly Sunny 76 24.4 60 15.6 58 58 Calm 30.04 1017 10 16 0.00 0.00
12:53 pm 12:53 Mostly Cloudy 77 25 58 14.4 52 52 SW 6 9 30.04 1017 10 16 0.00 0.00
1:53 pm 13:53 Cloudy 78 25.6 59 15 52 52 WNW 6 9 30.02 1017 10 16 0.00 0.00
2:53 pm 14:53 Cloudy 77 25 59 15 54 54 WNW 10 17 30.01 1016 10 16 0.00 0.00
3:53 pm 15:53 Cloudy 77 25 59 15 54 54 WNW 12 19 30.01 1016 10 16 0.00 0.00
4:53 pm 16:53 Cloudy 75 23.9 59 15 58 58 WNW 8 13 30.01 1016 10 16 0.00 0.00
6:53 pm 18:53 Mostly Cloudy 72 22.2 58 14.4 61 61 NW 6 9 30.02 1017 10 16 0.00 0.00
7:53 pm 19:53 Cloudy 70 21.1 57 13.9 64 64 N 5 7 30.02 1017 10 16 0.00 0.00
8:53 pm 20:53 Cloudy 68 20 55 12.8 63 63 NW 5 7 30.03 1017 10 16 0.00 0.00
9:53 pm 21:53 Cloudy 67 19.4 54 12.2 63 63 NNW 3 6 30.03 1017 10 16 0.00 0.00
10:53 pm 22:53 Cloudy 66 18.9 54 12.2 65 65 NNW 3 6 30.02 1017 10 16 0.00 0.00
11:53 pm 23:53 Cloudy with Light Rain 65 18.3 54 12.2 68 68 NNW 3 6 30.02 1017 9 14 0.01 0.25

Powered by AerisWeather